Hourly Weather Almak

Today, 3 March, Wednesday

Time Temperature Precipitation Wind Pressure Humidity
00:00 0°C° 0 mm 1 mps 678 mmHg 71%
01:00 -1°C° 0 mm 1 mps 677 mmHg 69%
02:00 -1°C° 0 mm 1 mps 677 mmHg 66%
03:00 -4°C° 0 mm 2 mps 676 mmHg 64%
04:00 -3°C° 0 mm 1 mps 676 mmHg 64%
05:00 -3°C° 0 mm 1 mps 676 mmHg 64%
06:00 -3°C° 0 mm 1 mps 675 mmHg 64%
07:00 -2°C° 0 mm 1 mps 675 mmHg 60%
08:00 0°C° 0 mm 1 mps 675 mmHg 55%
09:00 -1°C° 0 mm 2 mps 675 mmHg 51%
10:00 +1°C° 0 mm 2 mps 675 mmHg 51%
11:00 +2°C° 0 mm 2 mps 675 mmHg 50%
12:00 +2°C° 0 mm 3 mps 674 mmHg 50%
13:00 +3°C° 0 mm 2 mps 674 mmHg 54%
14:00 +3°C° 0 mm 2 mps 674 mmHg 59%
15:00 +3°C° 0 mm 2 mps 674 mmHg 63%
16:00 +2°C° 0.1 mm 2 mps 674 mmHg 71%
17:00 +1°C° 0.1 mm 2 mps 675 mmHg 78%
18:00 -1°C° 0.1 mm 2 mps 675 mmHg 86%
19:00 -2°C° 1.1 mm 3 mps 676 mmHg 87%
20:00 -2°C° 1.1 mm 3 mps 676 mmHg 89%
21:00 -4°C° 1.1 mm 4 mps 677 mmHg 90%
22:00 -4°C° 0.4 mm 4 mps 677 mmHg 89%
23:00 -5°C° 0.4 mm 4 mps 677 mmHg 88%

Tomorrow, 4 March, Thursday

Time Temperature Precipitation Wind Pressure Humidity
00:00 -7°C° 0.4 mm 4 mps 677 mmHg 87%
01:00 -7°C° 0.1 mm 4 mps 677 mmHg 86%
02:00 -7°C° 0.1 mm 4 mps 678 mmHg 85%
03:00 -6°C° 0.1 mm 3 mps 678 mmHg 85%
04:00 -7°C° 0 mm 3 mps 678 mmHg 84%
05:00 -7°C° 0 mm 3 mps 678 mmHg 83%
06:00 -7°C° 0 mm 3 mps 679 mmHg 83%
07:00 -6°C° 0 mm 3 mps 679 mmHg 77%
08:00 -5°C° 0 mm 3 mps 679 mmHg 72%
09:00 -4°C° 0 mm 3 mps 680 mmHg 66%
10:00 -2°C° 0 mm 2 mps 680 mmHg 64%
11:00 -1°C° 0 mm 2 mps 680 mmHg 61%
12:00 +2°C° 0 mm 1 mps 680 mmHg 59%
13:00 +2°C° 0 mm 1 mps 680 mmHg 59%
14:00 +3°C° 0 mm 1 mps 679 mmHg 59%
15:00 +3°C° 0 mm 1 mps 679 mmHg 59%
16:00 +2°C° 0 mm 1 mps 679 mmHg 65%
17:00 0°C° 0 mm 1 mps 679 mmHg 71%
18:00 -1°C° 0 mm 1 mps 678 mmHg 77%
19:00 -1°C° 0 mm 1 mps 678 mmHg 75%
20:00 -1°C° 0 mm 1 mps 678 mmHg 73%
21:00 -2°C° 0 mm 1 mps 678 mmHg 71%
22:00 -2°C° 0 mm 1 mps 678 mmHg 69%
23:00 -2°C° 0 mm 1 mps 678 mmHg 66%

Day after tomorrow, 5 March, Friday

Time Temperature Precipitation Wind Pressure Humidity
00:00 -2°C° 0 mm 1 mps 677 mmHg 64%
01:00 -2°C° 0 mm 1 mps 677 mmHg 62%
02:00 -2°C° 0 mm 1 mps 677 mmHg 60%
03:00 -2°C° 0 mm 1 mps 676 mmHg 58%
04:00 -2°C° 0 mm 1 mps 676 mmHg 57%
05:00 -2°C° 0 mm 1 mps 676 mmHg 56%
06:00 -3°C° 0 mm 1 mps 675 mmHg 55%
07:00 -1°C° 0 mm 1 mps 676 mmHg 52%
08:00 +1°C° 0 mm 1 mps 676 mmHg 50%
09:00 +2°C° 0 mm 1 mps 676 mmHg 48%
10:00 +3°C° 0 mm 1 mps 676 mmHg 48%
11:00 +4°C° 0 mm 1 mps 676 mmHg 49%
12:00 +5°C° 0 mm 1 mps 676 mmHg 49%
13:00 +6°C° 0 mm 1 mps 676 mmHg 50%
14:00 +6°C° 0 mm 1 mps 676 mmHg 51%
15:00 +6°C° 0 mm 1 mps 676 mmHg 52%
16:00 +5°C° 0 mm 1 mps 676 mmHg 56%
17:00 +4°C° 0 mm 1 mps 676 mmHg 60%
18:00 +2°C° 0 mm 1 mps 676 mmHg 64%
19:00 +2°C° 0 mm 1 mps 676 mmHg 60%
20:00 +2°C° 0 mm 1 mps 676 mmHg 56%
21:00 +2°C° 0 mm 1 mps 676 mmHg 51%
22:00 +1°C° 0 mm 2 mps 676 mmHg 49%
23:00 +1°C° 0 mm 2 mps 676 mmHg 46%

6 March, Saturday

Time Temperature Precipitation Wind Pressure Humidity
00:00 +1°C° 0 mm 2 mps 676 mmHg 44%
01:00 +1°C° 0 mm 2 mps 676 mmHg 42%
02:00 +1°C° 0 mm 2 mps 676 mmHg 40%
03:00 +1°C° 0 mm 2 mps 675 mmHg 38%
04:00 +1°C° 0 mm 2 mps 675 mmHg 36%
05:00 +1°C° 0 mm 2 mps 675 mmHg 35%
06:00 +1°C° 0 mm 2 mps 675 mmHg 34%
07:00 +4°C° 0 mm 1 mps 676 mmHg 34%
08:00 +5°C° 0 mm 1 mps 676 mmHg 34%
09:00 +7°C° 0 mm 1 mps 676 mmHg 34%
10:00 +8°C° 0 mm 1 mps 676 mmHg 34%
11:00 +9°C° 0 mm 1 mps 676 mmHg 34%
12:00 +10°C° 0 mm 1 mps 676 mmHg 33%
13:00 +11°C° 0 mm 1 mps 675 mmHg 34%
14:00 +11°C° 0 mm 1 mps 675 mmHg 35%
15:00 +11°C° 0 mm 1 mps 674 mmHg 36%
16:00 +9°C° 0 mm 1 mps 674 mmHg 41%
17:00 +7°C° 0 mm 1 mps 674 mmHg 46%
18:00 +6°C° 0 mm 1 mps 673 mmHg 51%
19:00 +6°C° 0 mm 1 mps 673 mmHg 51%
20:00 +6°C° 0 mm 1 mps 673 mmHg 51%
21:00 +4°C° 0 mm 2 mps 673 mmHg 51%
22:00 +4°C° 0 mm 2 mps 673 mmHg 52%
23:00 +4°C° 0 mm 2 mps 672 mmHg 52%

7 March, Sunday

Time Temperature Precipitation Wind Pressure Humidity
00:00 +3°C° 0 mm 2 mps 672 mmHg 52%
01:00 +3°C° 0 mm 2 mps 672 mmHg 53%
02:00 +2°C° 0 mm 2 mps 672 mmHg 54%
03:00 +1°C° 0 mm 3 mps 671 mmHg 56%
04:00 +1°C° 0 mm 3 mps 672 mmHg 59%
05:00 0°C° 0 mm 3 mps 672 mmHg 62%
06:00 0°C° 0 mm 3 mps 672 mmHg 66%
07:00 0°C° 0.4 mm 3 mps 673 mmHg 73%
08:00 0°C° 0.4 mm 3 mps 674 mmHg 81%
09:00 0°C° 0.4 mm 3 mps 675 mmHg 89%
10:00 -1°C° 1.2 mm 3 mps 675 mmHg 88%
11:00 -3°C° 1.2 mm 4 mps 675 mmHg 87%
12:00 -4°C° 1.2 mm 4 mps 675 mmHg 87%
13:00 -4°C° 0.3 mm 3 mps 675 mmHg 87%
14:00 -4°C° 0.3 mm 3 mps 675 mmHg 88%
15:00 -4°C° 0.3 mm 3 mps 675 mmHg 89%
16:00 -4°C° 0.3 mm 2 mps 675 mmHg 90%
17:00 -4°C° 0.3 mm 2 mps 676 mmHg 91%
18:00 -3°C° 0.3 mm 1 mps 676 mmHg 92%
19:00 -3°C° 0.1 mm 1 mps 676 mmHg 92%
20:00 -3°C° 0.1 mm 1 mps 676 mmHg 91%
21:00 -4°C° 0.1 mm 1 mps 676 mmHg 90%
22:00 -4°C° 0 mm 1 mps 676 mmHg 89%
23:00 -5°C° 0 mm 0 mps 676 mmHg 88%

8 March, Monday

Time Temperature Precipitation Wind Pressure Humidity
00:00 -6°C° 0 mm 0 mps 676 mmHg 86%
01:00 -6°C° 0 mm 0 mps 676 mmHg 86%
02:00 -6°C° 0 mm 0 mps 676 mmHg 86%
03:00 -6°C° 0 mm 0 mps 676 mmHg 85%
04:00 -6°C° 0 mm 0 mps 676 mmHg 85%
05:00 -6°C° 0 mm 0 mps 676 mmHg 85%
06:00 -6°C° 0 mm 0 mps 676 mmHg 85%
07:00 -5°C° 0 mm 0 mps 676 mmHg 82%
08:00 -3°C° 0 mm 1 mps 676 mmHg 79%
09:00 -2°C° 0 mm 1 mps 676 mmHg 76%
10:00 -2°C° 0 mm 1 mps 676 mmHg 76%
11:00 -3°C° 0 mm 2 mps 676 mmHg 76%
12:00 -2°C° 0 mm 2 mps 675 mmHg 76%
13:00 -2°C° 0.1 mm 2 mps 675 mmHg 76%
14:00 -2°C° 0.1 mm 2 mps 675 mmHg 77%
15:00 -2°C° 0.1 mm 2 mps 675 mmHg 78%
16:00 -2°C° 0 mm 2 mps 674 mmHg 81%
17:00 -1°C° 0 mm 1 mps 674 mmHg 85%
18:00 -2°C° 0 mm 1 mps 674 mmHg 88%
19:00 -2°C° 0 mm 1 mps 674 mmHg 89%
20:00 -2°C° 0 mm 1 mps 674 mmHg 90%
21:00 -4°C° 0 mm 0 mps 674 mmHg 91%
22:00 -4°C° 0 mm 0 mps 674 mmHg 91%
23:00 -4°C° 0 mm 0 mps 674 mmHg 90%
Show more